Weather Service Report


757 
FPUS83 KFGF 252010
OPUFGF
PRAIRIE TO PINES WEATHER ROUNDUP
NATIONAL WEATHER SERVICE EASTERN NORTH DAKOTA/GRAND FORKS ND
300 PM CDT SAT JUN 25 2016

 **SATELLITE DATA USED TO AUGMENT SKY COVER AT AUTOMATED STATIONS**
 *****  WEATHER ACROSS EASTERN NORTH DAKOTA  *****
  
CITY           SKY/WX    TMP DP  RH WIND       PRES   REMARKS
GRAND FORKS    PTSUNNY   83  64  52 W16G26    29.65S                  
GRAND FORKS AF MOSUNNY   81  57  44 NW22G30   29.67R                  
GRAND CITY NWS   N/A     81 N/A N/A NW22        N/A                   
BUXTON         NOT AVBL                                               
DEVILS LAKE    SUNNY     75  47  36 W22G30    29.75R                  
FARGO          CLOUDY    81  63  54 W20       29.70R                  
WAHPETON ARPT  CLOUDY    79  63  57 MISG      29.73F                  
$$

 *****  WEATHER ACROSS CENTRAL AND WESTERN NORTH DAKOTA  *****
  
CITY           SKY/WX    TMP DP  RH WIND       PRES   REMARKS
JAMESTOWN      SUNNY     81  48  31 NW22G33   29.77R                  
BISMARCK       SUNNY     79  39  23 W21G33    29.85R                  
MINOT          MOSUNNY   76  44  32 SW22G31   29.78S                  
MINOT AFB      SUNNY     72  45  37 W26G36    29.76S                  
GARRISON         N/A     75  40  28 W23G33    29.81F                  
WILLISTON      CLOUDY    65  46  50 W26G35    29.82F                  
DICKINSON      PTSUNNY   72  37  28 W25G43    29.87F                  
HETTINGER      SUNNY     78  30  17 W31G44    29.93S                  
$$

 *****  OTHER OBSERVATIONS NORTHEAST NORTH DAKOTA  *****
  
CITY           SKY/WX    TMP DP  RH WIND       PRES   REMARKS
WALHALLA       FAIR      75  72  88 W18G31    29.64R                  
LANGDON        FAIR      73  54  49 W22G35    29.71R                  
CAVALIER       FAIR      77  59  53 W25G32    29.64R                  
GRAFTON        FAIR      81  61  50 W21       29.67R                  
CANDO          NOT AVBL                                               
FORT TOTTEN      N/A     77  51  40 NW8       29.95S                  
ROLLA            N/A     68  45  42 W26G35    29.73F                  
RUGBY          NOT AVBL                                               
 ***** THE ABOVE OBSERVATIONS ARE NON NWS ARE NOT QUALITY
        CONTROLLED AND MAY MIS-REPORT RAIN FOR SNOW...
$$

 *****  OTHER OBSERVATIONS SOUTHEAST NORTH DAKOTA *****
  
CITY           SKY/WX    TMP DP  RH WIND       PRES   REMARKS
COOPERSTOWN    NOT AVBL                                               
VALLEY CITY    FAIR      81  55  41 NW25G31   29.76R                  
OAKES            N/A    N/A N/A N/A MISG        N/A                   
GWINNER        FAIR      84  57  39 NW17G24   29.77R                  
SHEYENNE NWR     N/A     81  62  51 NW12      29.95S                  
BUFFALO        NOT AVBL                                               
WYNDMERE         N/A     81  63  54 NW14        N/A                   
 ***** THE ABOVE OBSERVATIONS ARE NON NWS ARE NOT QUALITY
       CONTROLLED AND MAY MIS-REPORT RAIN FOR SNOW...
$$

  *****  WEATHER ACROSS NORTHERN MINNESOTA  *****     
  
CITY           SKY/WX    TMP DP  RH WIND       PRES   REMARKS
FLAG ISLAND    MOSUNNY   75  70  83 SE6       29.59S                  
WARROAD        CLOUDY    79  73  83 W8        29.61S                  
ROSEAU         MOSUNNY   77  72  83 W10G17    29.63R                  
HALLOCK        PTSUNNY   81  64  57 W17       29.62S                  
THF RVR FALLS  NOT AVBL                                               
HALSTAD        NOT AVBL                                               
FOSSTON        PTSUNNY   79  66  65 NW20G25   29.67R                  
BAUDETTE       CLOUDY    82  74  76 S8        29.60F                  
WASKISH          N/A     84  75  74 S8        29.61F HX  92           
CROOKSTON      PTSUNNY   79  66  65 NW13      29.65F                  
$$
  *****  WEATHER ACROSS CENTRAL AND WEST MINNESOTA  *****     
  
CITY           SKY/WX    TMP DP  RH WIND       PRES   REMARKS
BEMIDJI        CLOUDY    87  72  60 SW10G18   29.62F HX  93           
PARK RAPIDS    CLOUDY    91  70  49 SW20G26   29.65F HX  96           
WADENA         CLOUDY    88  72  58 SW10G21   29.66F HX  94           
DETROIT LAKES  CLOUDY    79  68  69 W18G26    29.73R                  
MOORHEAD       CLOUDY    79  66  65 NW12G18   29.72R                  
FERGUS FALLS   CLOUDY    77  66  69 W21G28    29.68R                  
ELBOW LAKE     MOCLDY    79  69  70 NW20G26   29.73R                  
MORRIS MN      PTSUNNY   81  68  65 W18G26    29.73R                  
STAPLES        CLOUDY    84  72  65 SW12G18   29.66F                  
WHEATON        PTSUNNY   81  68  65 W16G22    29.75F                  
$$
  *****  WEATHER ELSEWHERE ACROSS MINNESOTA  *****     
  
CITY           SKY/WX    TMP DP  RH WIND       PRES   REMARKS
DULUTH         CLOUDY    82  70  66 S16G22    29.71F                  
INTRNTL FALLS  CLOUDY    82  72  71 S8G22     29.64F                  
ELY            CLOUDY    77  66  69 S12G22    29.73F                  
CLOQUET        SUNNY     82  70  65 SE10      29.68F                  
BRAINERD       TSTM      74  70  87 N3        29.65F FOG              
HIBBING        CLOUDY    82  73  74 S10G22    29.67F                  
ALEXANDRIA     CLOUDY    86  70  58 W22G29    29.71F HX  90           
SAINT CLOUD    MOSUNNY   93  74  53 S30G37    29.67F HX 103           
MINNEAPOLIS    MOSUNNY   94  71  47 S24G31    29.73F HX 101           
$$

  *****  WEATHER ACROSS SOUTH DAKOTA  *****
  
CITY           SKY/WX    TMP DP  RH WIND       PRES   REMARKS
SIOUX FALLS    TSTM      74  67  78 W9        29.84R                  
BROOKINGS      MOSUNNY   82  66  58 W13       29.81R                  
WATERTOWN      PTSUNNY   80  62  54 NW18G24   29.82R                  
HURON          CLOUDY    81  54  39 NW22G30   29.82F                  
SISSETON         N/A     80  62  54 NW16      29.77R                  
ABERDEEN       MOSUNNY   87  51  28 NW21G28   29.81R                  
MITCHELL       CLOUDY    80  60  50 NW17G28   29.84R                  
PIERRE         SUNNY     84  41  21 W16G26    29.89F                  
MOBRIDGE       SUNNY     88  35  15 W14G29    29.86R HAZE             
RAPID CITY     SUNNY     80  37  21 NE7       29.99F                  
$$

  *****  SOME WEATHER IN NEARBY STATES *****
  
CITY           SKY/WX    TMP DP  RH WIND       PRES   REMARKS
GLASGOW MT     CLOUDY    63  51  65 W26G40    29.87R                  
GREAT FALLS MT MOSUNNY   69  38  32 W23G35    30.08R                  
CHEYENNE WY    MOSUNNY   78  33  19 N16G23    30.15S                  
SCOTTSBLUFF NE SUNNY     85  41  21 NW7       30.05F                  
OMAHA NE       CLOUDY    90  72  55 S13G22    29.85S HX  97           
DES MOINES IA  CLOUDY    89  67  47 S16G28    29.90S HX  92           
DAVENPORT IA   MOSUNNY   89  75  63 S15       29.98F HX  99           
CHICAGO IL     MOSUNNY   88  66  48 S6        30.03F HX  90           
EAU CLAIRE WI  CLOUDY    81  66  60 S17G26    29.85R                  
LA CROSSE WI   MOSUNNY   93  73  52 S18G26    29.88R HX 102           
$$

  *****  SOME NATIONAL WEATHER *****
  
CITY           SKY/WX    TMP DP  RH WIND       PRES   REMARKS
LA GUARDIA NY  MOSUNNY   82  54  37 S8        30.17S                  
RALEIGH NC     MOSUNNY   85  71  63 N10       30.11F HX  90           
ATLANTA GA     MOSUNNY   99  64  31 NW12G18   30.07F HX 101           
NEW ORLEANS LA MOSUNNY   96  70  42 VRB7      30.07F HX 102           
OKLAHOMA CITY  MOSUNNY   93  68  43 S16G25    29.99F HX  97           
ALBUQUERQUE NM PTSUNNY   89  39  17 VRB6      30.10F                  
SALT LAKE CITY SUNNY     77  20  12 NW12G18   30.23F                  
LOS ANGELES CA MOSUNNY   73  60  63 W13       29.87F                  
BOISE ID       SUNNY     72  29  20 E6        30.22F                  
SEATTLE WA     MOSUNNY   68  54  60 W9        30.28S                  
$$

*** WEATHER ACROSS MANITOBA...SASKATCHEWAN AND ONTARIO ***
                ***ONTARIO***
  
CITY           SKY/WX    TMP DP  RH WIND       PRES   REMARKS
GERALDTON      CLOUDY    66  63  88 S7        29.84R                  
THUNDER BAY    CLOUDY    66  59  77 S10       29.82S                  
SIOUX LOOKOUT  NOT AVBL                                               
TORONTO        MOSUNNY   82  46  28 SE9       30.14S                  
BIG TROUT LK   MOSUNNY   72  63  73 E7        29.73S                  
PICKLE LAKE    PTSUNNY   73  59  60 E12       29.71F                  
DRYDEN         CLOUDY    75  68  78 S8G18     29.65S                  
KENORA         LGT RAIN  72  70  94 SE7       29.63S                  
$$      
                *** MANITOBA***
  
CITY           SKY/WX    TMP DP  RH WIND       PRES   REMARKS
BRANDON        MOSUNNY   72  54  53 W28G36    29.65R                  
DAUPHIN        MOSUNNY   75  59  57 SW22G31   29.53R                  
ISLAND LAKE    PTSUNNY   72  64  78 E3        29.64F                  
PILOT MOUND      N/A     72  45  37 W13G22      N/A                   
THE PAS        CLOUDY    63  61  94 NE8       29.55S                  
THOMPSON       LGT RAIN  54  52  94 NE16G23   29.72R                  
WINNIPEG       PTSUNNY   77  64  65 W17G25    29.59S                  
LYNN LAKE      CLOUDY    54  46  76 NE12G24   29.79R                  
CHURCHILL      MOSUNNY   54  43  66 E14       29.99R                  
GILLAM         CLOUDY    50  46  87 NE16G25   29.81F                  
$$
                ***SASKATCHEWAN***
  
CITY           SKY/WX    TMP DP  RH WIND       PRES   REMARKS
ESTEVAN        LGT RAIN  55  48  76 SW23G35   29.75R                  
KINDERSLEY     TSTM      64  54  68 NW22G30   29.77R                  
LLOYDMINSTER   LGT RAIN  63  57  82 N13G21    29.78R                  
PRINCE ALBERT  PTSUNNY   73  57  56 W6        29.61F                  
REGINA         MOSUNNY   64  52  63 NW15G22   29.68S                  
YORKTON        PTSUNNY   66  55  68 W21G29    29.60R   C1F1C2F2C3F3C4F4C5F5C6F6C7F7C8F8C9F9CaFaCbFbCcFcCdFdCe!

Return to Home page


Western Regional Climate Center, wrcc@dri.edu